Weather History for Fort Knox, KY

Change the Weather History Date:

Sunday, December 4, 2011

  Actual Average Record
Temperature  
Mean Temperature 54 °F -  
Max Temperature 59 °F 47 °F 71 °F (1998)
Min Temperature 49 °F 31 °F 14 °F (2006)
Degree Days  
Heating Degree Days 11    
Growing Degree Days 4 (Base 50)    
Moisture  
Dew Point 45 °F    
Average Humidity 80    
Maximum Humidity 100    
Minimum Humidity 51    
Precipitation  
Precipitation 0.55 in - - ()
Sea Level Pressure  
Sea Level Pressure 30.16 in    
Wind  
Wind Speed 12 mph (SSE)    
Max Wind Speed 20 mph    
Max Gust Speed 28 mph    
Visibility 6 miles    
Events Rain    
Averages and records for this station are not official NWS values.
T = Trace of Precipitation, MM = Missing Value Source: NWS Daily Summary

Daily Weather History Graph

Daily Weather History Graph

Search for Another Location

Airport:

Trip Planner

Search our weather history database for the weather conditions in past years. The results will help you decide how hot, cold, wet, or windy it might be!

Date:

Astronomy

Dec. 04, 2011 Rise Set
Actual Time 7:43 AM EST 5:24 PM EST
Civil Twilight 7:14 AM EST 5:53 PM EST
Nautical Twilight 6:41 AM EST 6:26 PM EST
Astronomical Twilight 6:09 AM EST 6:58 PM EST
Moon 1:50 PM EST (12/4) 2:12 AM EST (12/4)
Length of Visible Light 10h 39m
Length of Day
9h 41m
Waxing Gibbous, 71% of the Moon is Illuminated
Dec 4
Waxing Gibbous
Dec 10
Full
Dec 17
Last Quarter
Dec 24
New
Jan 1
First Quarter

Hourly Weather History & Observations

Time (EST) Temp. Dew Point Humidity Pressure Visibility Wind Dir Wind Speed Gust Speed Precip Events Conditions
12:55 AM 51.8 °F 34.5 °F 52% 30.20 in 10.0 mi South 16.1 mph - N/A   Mostly Cloudy
1:55 AM 52.5 °F 34.7 °F 51% 30.18 in 10.0 mi South 19.6 mph 23.0 mph N/A   Overcast
2:55 AM 52.7 °F 34.9 °F 51% 30.19 in 10.0 mi South 15.0 mph 27.6 mph N/A   Mostly Cloudy
3:55 AM 51.8 °F 34.9 °F 53% 30.19 in 10.0 mi South 16.1 mph 23.0 mph N/A   Scattered Clouds
4:55 AM 52.2 °F 35.2 °F 53% 30.17 in 10.0 mi South 15.0 mph - N/A   Mostly Cloudy
5:55 AM 52.3 °F 36.9 °F 56% 30.17 in 10.0 mi South 15.0 mph - N/A   Mostly Cloudy
6:55 AM 52.5 °F 38.3 °F 58% 30.19 in 10.0 mi South 13.8 mph 24.2 mph N/A   Mostly Cloudy
7:55 AM 53.4 °F 40.1 °F 61% 30.18 in 10.0 mi South 13.8 mph - N/A   Overcast
8:55 AM 54.3 °F 41.4 °F 62% 30.18 in 10.0 mi South 17.3 mph 21.9 mph N/A   Overcast
9:55 AM 55.9 °F 43.2 °F 62% 30.19 in 10.0 mi South 8.1 mph - N/A   Overcast
10:55 AM 57.4 °F 45.5 °F 65% 30.18 in 10.0 mi South 19.6 mph 23.0 mph N/A   Overcast
11:55 AM 58.5 °F 47.1 °F 66% 30.17 in 10.0 mi South 9.2 mph 19.6 mph N/A   Overcast
12:47 PM 59.0 °F 48.2 °F 67% 30.14 in 7.0 mi South 9.2 mph - N/A Rain Light Rain
12:55 PM 58.1 °F 49.6 °F 73% 30.14 in 10.0 mi SSW 5.8 mph - 0.00 in Rain Light Rain
1:55 PM 54.1 °F 52.7 °F 95% 30.13 in 10.0 mi NNW 6.9 mph - 0.01 in Rain Light Rain
2:55 PM 51.3 °F 50.9 °F 99% 30.16 in 3.0 mi NW 9.2 mph - 0.02 in Rain Light Rain
3:41 PM 50.0 °F 50.0 °F 100% 30.14 in 2.0 mi NNW 5.8 mph - N/A Rain Rain
3:55 PM 50.2 °F 50.0 °F 99% 30.15 in 2.0 mi NNW 5.8 mph - 0.07 in Rain Rain
4:30 PM 50.0 °F 50.0 °F 100% 30.14 in 1.5 mi NNW 4.6 mph - N/A Rain Rain
4:35 PM 50.0 °F 50.0 °F 100% 30.14 in 1.5 mi NNW 5.8 mph - N/A Rain Rain
4:55 PM 49.8 °F 49.5 °F 99% 30.16 in 1.5 mi NNE 3.5 mph - 0.14 in Rain Rain
5:55 PM 49.8 °F 49.5 °F 99% 30.19 in 2.0 mi Calm Calm - 0.09 in Rain Light Rain
6:55 PM 49.8 °F 49.6 °F 99% 30.19 in 1.5 mi East 6.9 mph - 0.09 in Rain Light Rain
7:48 PM 50.0 °F 50.0 °F 100% 30.17 in 1.5 mi East 5.8 mph - N/A Rain Light Rain
7:55 PM 49.8 °F 49.8 °F 100% 30.18 in 1.5 mi East 5.8 mph - 0.05 in Rain Light Rain
8:55 PM 49.8 °F 49.8 °F 100% 30.16 in 1.5 mi East 8.1 mph - 0.02 in Rain Light Rain
9:55 PM 50.2 °F 50.2 °F 100% 30.14 in 1.0 mi East 6.9 mph - 0.01 in   Light Drizzle
10:55 PM 50.2 °F 50.2 °F 100% 30.13 in 1.0 mi ENE 4.6 mph - 0.01 in Rain Light Rain
11:55 PM 50.7 °F 50.7 °F 100% 30.12 in 6.0 mi NE 4.6 mph - 0.04 in Rain Light Rain